Regional Weather Roundup
Issued by NWS

Home | Current Version | Previous Version | Graphics & Text | Print | Product List | Glossary On
Versions: 1 2 3 4 5 6 7 8 9 10 11 12 13 14 15 16 17 18 19 20 21 22 23 24 25 26 27 28 29 30 31 32 33 34 35 36 37 38 39 40 41 42 43 44 45 46 47 48 49 50
000
ASUS43 KIND 021809
RWRIN

WEATHER ROUNDUP FOR INDIANA
NATIONAL WEATHER SERVICE INDIANAPOLIS IN
200 PM EDT TUE SEP 02 2014

NOTE: "FAIR" INDICATES FEW OR NO CLOUDS BELOW 12,000 FEET WITH NO
SIGNIFICANT WEATHER AND/OR OBSTRUCTIONS TO VISIBILITY.

* - STATION DOES NOT REPORT WEATHER SUCH AS PRECIPITATION OR FOG.

+ - STATION NOT QUALITY CONTROLLED BY THE NATIONAL WEATHER SERVICE.
    USE DATA WITH CAUTION...ESPECIALLY DEWPOINT AND RELATIVE
    HUMIDITY OBSERVATIONS.

INZ001>003-010>013-019-020-021900-
NORTHWEST INDIANA

CITY           SKY/WX    TMP DP  RH WIND       PRES   REMARKS
GARY /AIRPORT/ PTSUNNY   81  63  54 SW7       29.90
KNOX *+        PTSUNNY   75  67  74 W6        29.91S
LA PORTE +     PTSUNNY   75  67  74 SW6       29.92S
6HR MIN TEMP:  67; 6HR MAX TEMP:  75; 6HR PCP:  0.02;

MICHIGAN CITY+ PTSUNNY   75  64  69 W5        29.92S
MONTICELLO +   CLOUDY    76  69  79 SW9       29.92F
RENSSELAER +   PTSUNNY   77  70  78 SW6       29.93R
VALPARAISO     PTSUNNY   77  67  71 W8        29.92S
6HR MIN TEMP:  68; 6HR MAX TEMP:  77; 6HR PCP:  0.08;


$$

LMZ046-743>745-021900-
SOUTHERN LAKE MICHIGAN

STATION/POSITION TIME  TEMP WIND        PRES
                       AIR  DIR/SP/G
                 (UTC) (F)  (DEG/KT/KT) (MB)
MICHIGAN CITY    1800   72  250/  7/  8   N/A

$$

INZ004-005-014>016-021>024-021900-
NORTH CENTRAL INDIANA

CITY           SKY/WX    TMP DP  RH WIND       PRES   REMARKS
GOSHEN         PTSUNNY   76  66  71 W7        29.91S
6HR MIN TEMP:  69; 6HR MAX TEMP:  77; 6HR PCP:  0.08;

LOGANSPORT +   CLOUDY    73  64  73 SW13      29.94S
PERU/GRISSOM   CLOUDY    75  72  88 W10       29.93F
6HR MIN TEMP:  67; 6HR MAX TEMP:  75;

ROCHESTER +    PTSUNNY   79  68  69 W10       29.93S
SOUTH BEND     PTSUNNY   78  65  63 SW9       29.91S
6HR MIN TEMP:  70; 6HR MAX TEMP:  78; 6HR PCP: TRACE;

WARSAW +       PTSUNNY   73  66  78 W6        29.91F

$$

INZ006>009-017-018-025>027-021900-
NORTHEAST INDIANA

CITY           SKY/WX    TMP DP  RH WIND       PRES   REMARKS
ANGOLA *+      SUNNY     77  70  78 W8        29.90F
AUBURN +       PTSUNNY   77  64  65 W8        29.91F
FORT WAYNE     CLOUDY    73  67  81 W7        29.93S
6HR MIN TEMP:  67; 6HR MAX TEMP:  73; 6HR PCP: TRACE;

HUNTINGTON +   CLOUDY    73  68  84 W12       29.93S
6HR MIN TEMP:  67; 6HR MAX TEMP:  73;


$$

INZ028-029-035-036-043>045-051>053-021900-
WEST CENTRAL INDIANA

CITY           SKY/WX    TMP DP  RH WIND       PRES   REMARKS
GREENCASTLE +  CLOUDY    72  68  88 CALM      29.97S
LAFAYETTE      CLOUDY    74  67  78 SW6       29.93F
6HR MIN TEMP:  66; 6HR MAX TEMP:  74;

TERRE HAUTE    CLOUDY    73  68  84 SW6       29.96S
6HR MIN TEMP:  67; 6HR MAX TEMP:  74; 6HR PCP: TRACE;


$$

INZ030>032-037>040-046>048-054>057-064-065-021900-
CENTRAL INDIANA

CITY           SKY/WX    TMP DP  RH WIND       PRES   REMARKS
ANDERSON       CLOUDY    72  68  88 W12       29.97S
CP ATTERBURY + LGT RAIN  72  68  88 W6        29.97S
FRANKFORT +    CLOUDY    73  68  83 SW9       29.97S
GREENWOOD *+   CLOUDY    75  70  83 W6        29.97S
INDIANAPOLIS   CLOUDY    74  66  76 W10       29.96R
6HR MIN TEMP:  65; 6HR MAX TEMP:  74; 6HR PCP: TRACE;

-EAGLE CREEK   CLOUDY    74  66  76 W6        29.96R
6HR MIN TEMP:  66; 6HR MAX TEMP:  74; 6HR PCP: TRACE;

KOKOMO *+      CLOUDY    73  66  78 W8        29.95R
MARION +       CLOUDY    72  66  81 W5        29.96R HAZE
MT COMFORT *+  PTSUNNY   73  72  94 W9        29.97R
SHELBYVILLE    CLOUDY    76  69  79 SW8       29.95S
6HR MIN TEMP:  67; 6HR MAX TEMP:  77;

ZIONSVILLE +   CLOUDY    73  65  74 W10       29.97R
6HR MIN TEMP:  66; 6HR MAX TEMP:  74;


$$

INZ033-034-041-042-049-050-058-059-021900-
EAST CENTRAL INDIANA

CITY           SKY/WX    TMP DP  RH WIND       PRES   REMARKS
MUNCIE         CLOUDY    73  66  78 W6        29.95F
6HR MIN TEMP:  67; 6HR MAX TEMP:  73; 6HR PCP: TRACE;


$$

INZ060-061-067>069-081>083-085>088-021900-
SOUTHWEST INDIANA

CITY           SKY/WX    TMP DP  RH WIND       PRES   REMARKS
EVANSVILLE     CLOUDY    84  70  62 W15G21    29.96R
6HR MIN TEMP:  69; 6HR MAX TEMP:  84; 6HR PCP: TRACE;

WASHINGTON +   CLOUDY    75  71  89 N9        29.95R
6HR MIN TEMP:  67; 6HR MAX TEMP:  80; 6HR PCP:  0.03;


$$

INZ062-063-066-070>080-084-089>092-021900-
SOUTH CENTRAL AND SOUTHEAST INDIANA

CITY           SKY/WX    TMP DP  RH WIND       PRES   REMARKS
BLOOMINGTON    PTSUNNY   72  70  93 W7        29.97S
6HR MIN TEMP:  66; 6HR MAX TEMP:  73; 6HR PCP:  0.43;

NORTH VERNON + CLOUDY    75  75 100 W5        29.98

$$




USA.gov is the U.S. government's official web portal to all federal, state and local government web resources and services.